{"data":{"norad_id":53482,"intl_designator":"2022-099T","name":"STARLINK-4360","alt_names":[],"object_type":"PAYLOAD","status":"ACTIVE","operator":null,"country":"US","launch_date":"2022-08-12","launch_site_code":"AFWTR","launch_vehicle":null,"mission":null,"orbit_class":"UNKNOWN","rcs_meters":null,"size_class":null,"mass_kg":null,"dimensions":null,"purposes":["comms"],"wikipedia_slug":null,"has_3d_model":false,"image_url":null,"decayed_at":null,"tle_current":{"epoch":"2026-09-20T22:00:03.000096Z","epoch_age_seconds":43055,"freshness":"FRESH","line1":"1 53482U 22099T   26263.91670139 -.00039100  00000+0 -20006-2 0  9993","line2":"2 53482  97.2824  17.7873 0001210  96.4537  94.9401 15.16777719  5583","mean_motion":15.16777719,"eccentricity":0.000121,"inclination_deg":97.2824,"raan_deg":17.7873,"arg_perigee_deg":96.4537,"mean_anomaly_deg":94.9401,"bstar":-0.0020006,"rev_number":558,"period_min":94.938103451927,"perigee_km":514.7526885988,"apogee_km":516.42096976546,"semimajor_km":6893.7238291821,"source":"CELESTRAK","updated_at":"2026-09-21T09:00:32.890823Z"}}}